• Em Portugal
  • Lista de países
  • Para 7 dias
  • Temperatura da água
  • Mapas de satélite
  • Mapa do tempo
  • Widgets de tempo
  • user-avatar
    Iniciar Sessão

    Previsão horária em Chwalowice

    Hoje, 26 Setembro, Quarta-feira

    Tempo Temperatura Precipitação Vento Pressão Humidade
    00:00 +5°C° 0 mm 2 m/s 764 mmHg 70%
    01:00 +4°C° 0 mm 2 m/s 764 mmHg 72%
    02:00 +4°C° 0 mm 2 m/s 765 mmHg 74%
    03:00 +4°C° 0 mm 2 m/s 765 mmHg 75%
    04:00 +4°C° 0 mm 2 m/s 765 mmHg 77%
    05:00 +4°C° 0 mm 2 m/s 765 mmHg 75%
    06:00 +5°C° 0 mm 2 m/s 765 mmHg 73%
    07:00 +6°C° 0 mm 2 m/s 765 mmHg 72%
    08:00 +8°C° 0 mm 3 m/s 765 mmHg 65%
    09:00 +10°C° 0 mm 3 m/s 765 mmHg 58%
    10:00 +12°C° 0 mm 4 m/s 764 mmHg 51%
    11:00 +12°C° 0 mm 4 m/s 764 mmHg 48%
    12:00 +13°C° 0 mm 4 m/s 763 mmHg 46%
    13:00 +14°C° 0 mm 4 m/s 763 mmHg 43%
    14:00 +14°C° 0 mm 4 m/s 762 mmHg 45%
    15:00 +13°C° 0 mm 4 m/s 762 mmHg 46%
    16:00 +13°C° 0 mm 3 m/s 761 mmHg 48%
    17:00 +13°C° 0 mm 3 m/s 761 mmHg 49%
    18:00 +12°C° 0 mm 3 m/s 761 mmHg 50%
    19:00 +11°C° 0 mm 3 m/s 760 mmHg 51%
    20:00 +11°C° 0 mm 4 m/s 760 mmHg 51%
    21:00 +12°C° 0 mm 4 m/s 760 mmHg 51%
    22:00 +12°C° 0 mm 5 m/s 759 mmHg 51%
    23:00 +12°C° 0 mm 5 m/s 759 mmHg 49%

    Amanhã, 27 Setembro, Quinta-feira

    Tempo Temperatura Precipitação Vento Pressão Humidade
    00:00 +11°C° 0 mm 6 m/s 759 mmHg 47%
    01:00 +11°C° 0 mm 6 m/s 758 mmHg 45%
    02:00 +11°C° 0 mm 6 m/s 758 mmHg 46%
    03:00 +11°C° 0 mm 6 m/s 758 mmHg 47%
    04:00 +11°C° 0 mm 6 m/s 757 mmHg 48%
    05:00 +11°C° 0 mm 6 m/s 757 mmHg 50%
    06:00 +11°C° 0 mm 6 m/s 757 mmHg 53%
    07:00 +11°C° 0 mm 6 m/s 757 mmHg 55%
    08:00 +13°C° 0 mm 6 m/s 757 mmHg 55%
    09:00 +14°C° 0 mm 6 m/s 757 mmHg 56%
    10:00 +15°C° 0 mm 6 m/s 758 mmHg 56%
    11:00 +17°C° 0 mm 6 m/s 757 mmHg 56%
    12:00 +19°C° 0 mm 6 m/s 757 mmHg 55%
    13:00 +21°C° 0 mm 6 m/s 757 mmHg 54%
    14:00 +20°C° 0 mm 5 m/s 756 mmHg 57%
    15:00 +20°C° 0 mm 5 m/s 756 mmHg 59%
    16:00 +20°C° 0 mm 4 m/s 756 mmHg 61%
    17:00 +18°C° 0 mm 4 m/s 756 mmHg 67%
    18:00 +17°C° 0 mm 3 m/s 756 mmHg 72%
    19:00 +14°C° 0 mm 3 m/s 755 mmHg 78%
    20:00 +14°C° 0 mm 3 m/s 755 mmHg 79%
    21:00 +14°C° 0 mm 3 m/s 755 mmHg 79%
    22:00 +13°C° 0 mm 3 m/s 755 mmHg 80%
    23:00 +13°C° 0 mm 4 m/s 754 mmHg 78%

    Depois de amanhã, 28 Setembro, Sexta-feira

    Tempo Temperatura Precipitação Vento Pressão Humidade
    00:00 +13°C° 0 mm 4 m/s 754 mmHg 76%
    01:00 +13°C° 0 mm 4 m/s 753 mmHg 74%
    02:00 +12°C° 0 mm 4 m/s 752 mmHg 74%
    03:00 +12°C° 0 mm 4 m/s 752 mmHg 73%
    04:00 +12°C° 0 mm 4 m/s 751 mmHg 73%
    05:00 +12°C° 0 mm 4 m/s 751 mmHg 70%
    06:00 +13°C° 0 mm 5 m/s 751 mmHg 68%
    07:00 +13°C° 0 mm 5 m/s 751 mmHg 65%
    08:00 +15°C° 0 mm 5 m/s 751 mmHg 59%
    09:00 +17°C° 0 mm 5 m/s 751 mmHg 53%
    10:00 +20°C° 0 mm 5 m/s 751 mmHg 47%
    11:00 +20°C° 0 mm 5 m/s 751 mmHg 46%
    12:00 +21°C° 0 mm 5 m/s 750 mmHg 44%
    13:00 +22°C° 0 mm 5 m/s 750 mmHg 42%
    14:00 +21°C° 0 mm 5 m/s 750 mmHg 48%
    15:00 +20°C° 0 mm 4 m/s 750 mmHg 53%
    16:00 +19°C° 0 mm 4 m/s 750 mmHg 59%
    17:00 +17°C° 0 mm 4 m/s 750 mmHg 65%
    18:00 +16°C° 0 mm 3 m/s 751 mmHg 71%
    19:00 +13°C° 0 mm 3 m/s 751 mmHg 77%
    20:00 +14°C° 0 mm 2 m/s 751 mmHg 77%
    21:00 +13°C° 0 mm 2 m/s 751 mmHg 76%
    22:00 +13°C° 0 mm 2 m/s 752 mmHg 76%
    23:00 +12°C° 0 mm 2 m/s 752 mmHg 74%

    29 Setembro, Sábado

    Tempo Temperatura Precipitação Vento Pressão Humidade
    00:00 +12°C° 0 mm 2 m/s 752 mmHg 72%
    01:00 +12°C° 0 mm 2 m/s 752 mmHg 70%
    02:00 +12°C° 0 mm 2 m/s 752 mmHg 71%
    03:00 +10°C° 0 mm 2 m/s 752 mmHg 71%
    04:00 +10°C° 0 mm 2 m/s 752 mmHg 72%
    05:00 +10°C° 0 mm 2 m/s 752 mmHg 72%
    06:00 +10°C° 0 mm 2 m/s 753 mmHg 73%
    07:00 +10°C° 0 mm 2 m/s 753 mmHg 73%
    08:00 +11°C° 0 mm 3 m/s 754 mmHg 69%
    09:00 +11°C° 0 mm 3 m/s 754 mmHg 65%
    10:00 +12°C° 0 mm 3 m/s 755 mmHg 61%
    11:00 +13°C° 0 mm 4 m/s 755 mmHg 56%
    12:00 +14°C° 0 mm 4 m/s 755 mmHg 51%
    13:00 +14°C° 0 mm 4 m/s 755 mmHg 46%
    14:00 +14°C° 0 mm 4 m/s 755 mmHg 46%
    15:00 +14°C° 0 mm 4 m/s 755 mmHg 46%
    16:00 +13°C° 0 mm 4 m/s 755 mmHg 47%
    17:00 +12°C° 0 mm 3 m/s 756 mmHg 51%
    18:00 +10°C° 0 mm 3 m/s 756 mmHg 54%
    19:00 +9°C° 0 mm 2 m/s 757 mmHg 58%
    20:00 +8°C° 0 mm 2 m/s 757 mmHg 59%
    21:00 +8°C° 0 mm 2 m/s 757 mmHg 61%
    22:00 +7°C° 0 mm 2 m/s 758 mmHg 63%
    23:00 +7°C° 0 mm 2 m/s 758 mmHg 64%

    30 Setembro, Domingo

    Tempo Temperatura Precipitação Vento Pressão Humidade
    00:00 +6°C° 0 mm 2 m/s 758 mmHg 66%
    01:00 +7°C° 0 mm 1 m/s 758 mmHg 68%
    02:00 +7°C° 0 mm 1 m/s 758 mmHg 70%
    03:00 +6°C° 0 mm 1 m/s 758 mmHg 71%
    04:00 +6°C° 0 mm 1 m/s 758 mmHg 72%
    05:00 +7°C° 0 mm 1 m/s 758 mmHg 70%
    06:00 +7°C° 0 mm 1 m/s 758 mmHg 68%
    07:00 +8°C° 0 mm 1 m/s 758 mmHg 65%
    08:00 +10°C° 0 mm 1 m/s 758 mmHg 58%
    09:00 +12°C° 0 mm 2 m/s 758 mmHg 51%
    10:00 +14°C° 0 mm 2 m/s 758 mmHg 44%
    11:00 +14°C° 0 mm 2 m/s 757 mmHg 41%
    12:00 +15°C° 0 mm 2 m/s 757 mmHg 39%
    13:00 +16°C° 0 mm 2 m/s 756 mmHg 36%
    14:00 +15°C° 0 mm 2 m/s 756 mmHg 38%
    15:00 +15°C° 0 mm 2 m/s 755 mmHg 41%
    16:00 +15°C° 0 mm 2 m/s 755 mmHg 43%
    17:00 +13°C° 0 mm 2 m/s 755 mmHg 48%
    18:00 +12°C° 0 mm 2 m/s 755 mmHg 53%
    19:00 +9°C° 0 mm 2 m/s 755 mmHg 59%
    20:00 +9°C° 0 mm 2 m/s 754 mmHg 61%
    21:00 +8°C° 0 mm 2 m/s 754 mmHg 64%
    22:00 +8°C° 0 mm 2 m/s 754 mmHg 67%
    23:00 +7°C° 0 mm 2 m/s 753 mmHg 69%

    1 Outubro, Segunda-feira

    Tempo Temperatura Precipitação Vento Pressão Humidade
    00:00 +7°C° 0 mm 2 m/s 753 mmHg 72%
    01:00 +7°C° 0 mm 2 m/s 753 mmHg 74%
    02:00 +7°C° 0 mm 2 m/s 752 mmHg 78%
    03:00 +6°C° 0 mm 2 m/s 752 mmHg 82%
    04:00 +6°C° 0 mm 2 m/s 751 mmHg 85%
    05:00 +8°C° 0 mm 1 m/s 751 mmHg 85%
    06:00 +8°C° 0 mm 1 m/s 751 mmHg 85%
    07:00 +9°C° 0 mm 1 m/s 750 mmHg 85%
    08:00 +10°C° 0 mm 2 m/s 750 mmHg 77%
    09:00 +14°C° 0 mm 2 m/s 749 mmHg 69%
    10:00 +16°C° 0 mm 2 m/s 749 mmHg 60%
    11:00 +17°C° 0 mm 2 m/s 748 mmHg 56%
    12:00 +19°C° 0 mm 2 m/s 748 mmHg 52%
    13:00 +20°C° 0 mm 2 m/s 747 mmHg 48%
    14:00 +20°C° 0 mm 2 m/s 747 mmHg 51%
    15:00 +20°C° 0 mm 2 m/s 746 mmHg 54%
    16:00 +20°C° 0 mm 2 m/s 746 mmHg 57%
    17:00 +18°C° 0 mm 2 m/s 745 mmHg 63%
    18:00 +16°C° 0 mm 2 m/s 745 mmHg 70%
    19:00 +14°C° 0 mm 3 m/s 745 mmHg 76%
    20:00 +14°C° 0 mm 3 m/s 745 mmHg 77%
    21:00 +13°C° 0 mm 3 m/s 745 mmHg 78%
    22:00 +13°C° 0 mm 3 m/s 744 mmHg 79%
    23:00 +14°C° 0 mm 2 m/s 744 mmHg 79%
    Mostrar mais